Regional Weather Roundup
Issued by NWS

Home | Current Version | Previous Version | Text Only | Print | Product List | Glossary Off
Versions: 1 2 3 4 5 6 7 8 9 10 11 12 13 14 15 16 17 18 19 20 21 22 23 24 25 26 27

000
ASUS45 KCYS 031710
RWRWY

WYOMING REGIONAL WEATHER ROUNDUP
NATIONAL WEATHER SERVICE CHEYENNE WY
1000 AM MST SAT DEC 03 2016

NOTE:  "FAIR" INDICATES FEW OR NO CLOUDS BELOW 12,000 FEET
WITH NO SIGNIFICANT WEATHER AND/OR OBSTRUCTIONS TO VISIBILITY.

WYZ001-031800-
YELLOWSTONE NATIONAL PARK

CITY           SKY/WX    TMP DP  RH WIND       PRES   REMARKS
LK YELLOWSTONE   N/A     15  10  80 VRB7      30.07R WCI   5
W YELLOWSTONE  NOT AVBL

$$
WYZ002>013-054>058-071-098>099-031800-
NORTHERN WYOMING

CITY           SKY/WX    TMP DP  RH WIND       PRES   REMARKS
JACKSON        CLOUDY    19  18  93 SW7       30.14R WCI  10
CODY           FAIR      34   9  35 W26G37    29.94R WCI  21
GREYBULL       CLOUDY    29  19  66 CALM      30.01R
WORLAND        CLOUDY    27  17  66 CALM      30.00R
SHERIDAN       CLOUDY    35  24  64 VRB3      29.92R
BUFFALO        FAIR      36  16  44 SE3       29.91R
GILLETTE       CLOUDY    31  17  56 W10       29.91S WCI  22
HULETT         CLOUDY    30  18  59 SW14      29.91R WCI  20
NEWCASTLE      FAIR      27  14  59 W3        29.94S

$$
WYZ014>020-022>026-101>103-031800-
CENTRAL WYOMING

CITY           SKY/WX    TMP DP  RH WIND       PRES   REMARKS
BIG PINEY      FAIR      19  11  70 NE3       30.11R
PINEDALE       FAIR      21  10  63 NW15      30.10R WCI   8
DUBOIS         CLOUDY    21   9  58 N15G23    30.01F WCI   8
LANDER         FAIR      21   8  57 NW7       29.99R WCI  12
RIVERTON       FAIR      33  10  38 NW12      29.98R WCI  24
CASPER         PTSUNNY   28  13  53 SW28G33   29.96S WCI  13
DOUGLAS        CLOUDY    33  14  45 W14       29.95R WCI  23

$$
WYZ021-027>030-104>119-031800-
SOUTHERN WYOMING

CITY           SKY/WX    TMP DP  RH WIND       PRES   REMARKS
EVANSTON       CLOUDY    19  11  70 SW12      30.17F WCI   7
FORT BRIDGER   CLOUDY    26  11  54 W15G26    30.17S WCI  13
ROCK SPRINGS   FAIR      22  10  60 W41G47    30.08F WCI   1
DIXON          CLOUDY    17  10  77 CALM      30.18F
RAWLINS        CLOUDY    21   8  57 W24G35    30.03S WCI   4
SARATOGA       CLOUDY    25   9  50 SW15      30.08S WCI  12
LARAMIE        PTSUNNY   24   6  46 SW24G31   29.96R WCI   8
CHEYENNE       CLOUDY    30   5  34 W17G32    29.98R WCI  18
TORRINGTON     FAIR      37  10  32 W16G30    29.97S WCI  28
PINE BLUFFS    FAIR      30  21  69 SW10      30.01R WCI  21

$$




USA.gov is the U.S. government's official web portal to all federal, state and local government web resources and services.